This is the latest recevied weather packets stored in our database for station/object K9RJT. If no packets are shown the sender has not sent any weather packets the latest 10 day(s).
| Time | Temp. | Humidity | Pressure | Rain* | Wind** | Luminosity | Snow |
|---|---|---|---|---|---|---|---|
| 1778115795 | 23.89° C | 37% | 1012.8 hPa | 0 mm | - | 138 W/m² | - |
| 1778115493 | 23.89° C | 36% | 1012.8 hPa | 0 mm | - | 136 W/m² | - |
| 1778115190 | 23.89° C | 37% | 1012.6 hPa | 0 mm | - | 134 W/m² | - |
| 1778114887 | 23.89° C | 37% | 1012.7 hPa | 0 mm | - | 137 W/m² | - |
| 1778114584 | 24.44° C | 38% | 1012.6 hPa | 0 mm | - | 141 W/m² | - |
| 1778114281 | 24.44° C | 36% | 1012.9 hPa | 0 mm | - | 144 W/m² | - |
| 1778113975 | 24.44° C | 36% | 1012.4 hPa | 0 mm | - | 171 W/m² | - |
| 1778113671 | 24.44° C | 36% | 1012.8 hPa | 0 mm | - | 161 W/m² | - |
| 1778113367 | 24.44° C | 37% | 1012.4 hPa | 0 mm | - | 164 W/m² | - |
| 1778113065 | 24.44° C | 36% | 1012.5 hPa | 0 mm | - | 173 W/m² | - |
| 1778112762 | 25° C | 36% | 1012.6 hPa | 0 mm | - | 169 W/m² | - |
| 1778112458 | 24.44° C | 36% | 1012.2 hPa | 0 mm | - | 157 W/m² | - |
| 1778112154 | 25° C | 37% | 1012.3 hPa | 0 mm | - | 152 W/m² | - |
| 1778111851 | 25° C | 37% | 1012.3 hPa | 0 mm | - | 162 W/m² | - |
| 1778111546 | 25° C | 37% | 1012.1 hPa | 0 mm | - | 168 W/m² | - |
| 1778111244 | 25.56° C | 36% | 1012 hPa | 0 mm | - | 170 W/m² | - |
| 1778110941 | 26.11° C | 35% | 1012.1 hPa | 0 mm | - | 172 W/m² | - |
| 1778110639 | 25.56° C | 33% | 1012 hPa | 0 mm | - | 273 W/m² | - |
| 1778110335 | 25.56° C | 33% | 1012.1 hPa | 0 mm | - | 200 W/m² | - |
| 1778110031 | 26.11° C | 33% | 1012.2 hPa | 0 mm | - | 225 W/m² | - |
| 1778109726 | 26.67° C | 33% | 1011.6 hPa | 0 mm | - | 261 W/m² | - |
| 1778109424 | 26.67° C | 32% | 1012.1 hPa | 0 mm | - | 318 W/m² | - |
| 1778109122 | 26.11° C | 32% | 1012 hPa | 0 mm | - | 424 W/m² | - |
| 1778108818 | 27.22° C | 30% | 1011.7 hPa | 0 mm | - | 378 W/m² | - |
| 1778108515 | 26.67° C | 31% | 1011.7 hPa | 0 mm | - | 365 W/m² | - |
* Rain latest hour (hover to see other rain measurements)
** Current wind speed in m/s (hover to see current wind gust speed)